Location: Recife
(8.0585°S, 34.8848°W)
Time: 14:52:18
(UTC-03:00)

Tiros 1 despin weight - Pass Details

Date: 14 April 2026
Orbit: 555 x 591 km, 48.2° (Epoch: 14 May)

Event Time Altitude Azimuth Distance (km) Brightness Sun altitude
Rises 02:49:05 0° 295° (WNW) 2,804 - -38.3°
Reaches altitude 10° 02:51:45 10° 280° (W) 1,904 - -37.7°
Maximum altitude 02:55:11 22° 228° (SW) 1,283 - -36.8°
Drops below altitude 10° 02:58:36 10° 176° (S) 1,899 - -36.0°
Sets 03:01:16 0° 161° (SSE) 2,794 - -35.3°
